Regional Weather Roundup
Issued by NWS

Home | Current Version | Previous Version | Graphics & Text | Print | Product List | Glossary On
Versions: 1 2 3 4 5 6 7 8 9 10 11 12 13 14 15 16 17 18 19 20 21 22 23 24 25 26 27 28 29 30 31 32 33 34 35 36 37 38 39 40 41 42 43 44 45 46 47 48 49 50
000
ASUS44 KMEG 030600
RWRTN
TENNESSEE HOURLY STATE WEATHER ROUNDUP
NATIONAL WEATHER SERVICE MEMPHIS TN
100 AM CDT FRI JUL 03 2015

TNZ002-004-019-021-049-052-054-088>092-030700-
WEST TENNESSEE

CITY           SKY/WX    TMP DP  RH WIND       PRES   REMARKS
MEMPHIS INTL   CLOUDY    73  68  84 CALM      29.90F
NWS MEMPHIS      N/A     71 N/A N/A MISG        N/A
JACKSON        LGT RAIN  72  68  87 VRB3      29.88F
DYERSBURG        N/A    N/A N/A N/A MISG        N/A
PARIS          PTCLDY    70  70 100 SW6       29.88F
LEXINGTON      MOCLDY    68  66  94 CALM      29.88F
$$

TNZ008-025-027-028-033-062-065-066-030700-
NORTH MIDDLE TENNESSEE

CITY           SKY/WX    TMP DP  RH WIND       PRES   REMARKS
NASHVILLE      CLOUDY    74  73  97 SW6       29.89F
CLARKSVILLE    CLOUDY    73  68  84 CALM      29.87F
COOKEVILLE     CLOUDY    72  72 100 MISG      29.90F
CROSSVILLE     CLOUDY    69  66  90 W6        29.96F
$$

TNZ061-075-076-078-094-096-097-030700-
SOUTH MIDDLE TENNESSEE

CITY           SKY/WX    TMP DP  RH WIND       PRES   REMARKS
FAYETTEVILLE   PTCLDY    73  72  94 SW8       29.92F
TULLAHOMA      CLEAR     72  70  94 SW8       29.93F
WINCHESTER     MOCLDY    73  72  94 VRB6      29.93F
SHELBYVILLE    MOCLDY   N/A N/A N/A MISG        N/A
$$

TNZ017-018-042-046-047-030700-
NORTHEAST TENNESSEE

CITY           SKY/WX    TMP DP  RH WIND       PRES   REMARKS
TRI CITIES     CLOUDY    68  67  96 S3        29.94F
ELIZABETHTON   HVY RAIN  64  64 100 N7        29.96S FOG
$$

TNZ012-013-036-069-073-074-030700-
CENTRAL EAST TENNESSEE

CITY           SKY/WX    TMP DP  RH WIND       PRES   REMARKS
KNOXVILLE      CLOUDY    72  69  90 S8        29.90F
OAK RIDGE      HVY RAIN  72  70  93 CALM      29.93S FOG
GATLINBURG     MOCLDY    72  66  83 S3        29.92F
$$

TNZ083-085-099-030700-
SOUTHEAST TENNESSEE

CITY           SKY/WX    TMP DP  RH WIND       PRES   REMARKS
CHATTANOOGA      N/A     73  71  93 CALM      29.92F
$$

SKY/WX REPORTED AS FAIR MEANS FEW OR NO CLOUDS BELOW
12 THOUSAND FEET.



USA.gov is the U.S. government's official web portal to all federal, state and local government web resources and services.